Flag for USA

Past Weather in Escanaba, Michigan, USA — Yesterday and Last 2 Weeks

Now
61 °F

Fog.


Feels Like: 61 °F
Forecast: 67 / 56 °F
Wind: 7 mph from Southeast

Location: Escanaba Delta County Airport
Current Time: Sep 25, 2020 at 3:58:54 am
Latest Report: Sep 25, 2020 at 2:56 am
Visibility: 4 mi
Pressure29.91 "Hg
Humidity: 97%
Dew Point: 60 °F
Location of EscanabaLocation

Past Weather in Escanaba — Graph

°F

Escanaba Temperature Yesterday

Maximum temperature yesterday: 61 °F (at 12:56 am)
Minimum temperature yesterday: 57 °F (at 4:56 am)
Average temperature yesterday: 59 °F

High & Low Weather Summary for the Past Weeks

 TemperatureHumidityPressure
High73 °F (Sep 22, 12:56 pm)100% (Sep 11, 12:29 am)30.48 "Hg (Sep 11, 12:29 am)
Low29 °F (Sep 18, 5:56 am)44% (Sep 18, 1:56 pm)29.74 "Hg (Sep 13, 1:22 am)
Average55 °F83%30.16 "Hg
* Reported Sep 10 3:56 am — Sep 25 2:56 am, Escanaba. Weather by CustomWeather, © 2020

Note: Actual official high and low records may vary slightly from our data, if they occured in-between our weather recording intervals... More about our weather records

Escanaba Weather History for the Previous 24 Hours

Scroll right to see more
 ConditionsComfort  
Time TempWeatherWind HumidityBarometerVisibility
2:56 am
Fri, Sep 25
61 °FFog.7 mph97%29.91 "Hg4 mi
2:20 am61 °FFog.10 mph100%29.90 "Hg4 mi
1:56 am60 °FFog.10 mph96%29.91 "Hg2 mi
1:41 am61 °FLight rain. Fog.6 mph94%29.90 "Hg2 mi
1:26 am59 °FLight rain. Fog.8 mph100%29.91 "Hg2 mi
12:56 am59 °FFog.7 mph96%29.93 "Hg6 mi
11:56 pm
Thu, Sep 24
59 °FLow clouds.5 mph93%29.94 "Hg9 mi
10:56 pm59 °FLow clouds.8 mph93%29.94 "Hg10 mi
9:56 pm59 °FLow clouds.8 mph96%29.94 "Hg9 mi
9:05 pm61 °FLow clouds.10 mph88%29.93 "Hg10 mi
8:56 pm60 °FLow clouds.12 mph93%29.93 "Hg10 mi
7:56 pm59 °FPassing clouds.6 mph93%29.94 "Hg10 mi
7:07 pm61 °FPartly sunny.3 mph88%29.92 "Hg10 mi
6:56 pm61 °FBroken clouds.No wind90%29.92 "Hg10 mi
5:56 pm61 °FOvercast.3 mph90%29.92 "Hg10 mi
5:32 pm61 °FCloudy.6 mph88%29.92 "Hg10 mi
5:24 pm61 °FMostly cloudy.5 mph88%29.92 "Hg10 mi
4:56 pm60 °FLow clouds.6 mph93%29.93 "Hg10 mi
3:56 pm61 °FLow clouds.6 mph90%29.94 "Hg10 mi
2:56 pm60 °FLow clouds.No wind90%29.94 "Hg10 mi
1:56 pm61 °FLow clouds.6 mph90%29.95 "Hg10 mi
12:56 pm60 °FLow clouds.No wind93%29.96 "Hg10 mi
11:56 am59 °FLow clouds.No wind93%29.95 "Hg10 mi
10:56 am59 °FLight rain. Low clouds.No wind93%29.95 "Hg10 mi
10:30 am57 °FMostly cloudy.No wind100%29.95 "Hg10 mi
9:56 am57 °FLight rain. Low clouds.5 mph100%29.96 "Hg10 mi
9:16 am57 °FRain. Fog.No wind94%29.94 "Hg5 mi
9:03 am57 °FRain. Fog.No wind94%29.93 "Hg3 mi
8:38 am57 °FHeavy rain. Fog.No wind94%29.94 "Hg2 mi
7:56 am57 °FHeavy rain. Fog.No wind96%29.93 "Hg3 mi
6:56 am57 °FLight rain. Mostly cloudy.3 mph96%29.90 "Hg9 mi
5:56 am57 °FLight rain. Mostly cloudy.6 mph96%29.93 "Hg9 mi
5:17 am57 °FRain. Overcast.7 mph94%29.93 "Hg7 mi
4:56 am57 °FRain. Mostly cloudy.3 mph96%29.95 "Hg8 mi
3:56 am58 °FLight rain. Partly cloudy.No wind87%29.90 "Hg10 mi
3:18 am57 °FOvercast.5 mph88%29.91 "Hg10 mi
Weather by CustomWeather, © 2020

See weather overview